TimeMST,TemperatureF,Dew PointF,Humidity,Sea Level PressureIn,VisibilityMPH,Wind Direction,Wind SpeedMPH,Gust SpeedMPH,PrecipitationIn,Events,Conditions,WindDirDegrees,DateUTC
12:53 AM,16.0,12.0,84,30.53,8.0,Calm,Calm,-,N/A,,Clear,0,2013-01-24 07:53:00
1:53 AM,12.9,10.0,88,30.54,7.0,ENE,4.6,-,N/A,,Clear,60,2013-01-24 08:53:00
2:53 AM,18.0,14.0,84,30.49,8.0,East,4.6,-,N/A,,Clear,80,2013-01-24 09:53:00
3:53 AM,15.1,12.0,88,30.52,7.0,Calm,Calm,-,N/A,,Clear,0,2013-01-24 10:53:00
4:53 AM,15.1,12.0,88,30.50,6.0,West,3.5,-,N/A,,Clear,270,2013-01-24 11:53:00
5:53 AM,18.0,15.1,88,30.51,10.0,Calm,Calm,-,N/A,,Partly Cloudy,0,2013-01-24 12:53:00
6:53 AM,19.0,15.1,85,30.52,7.0,Calm,Calm,-,N/A,,Clear,0,2013-01-24 13:53:00
7:53 AM,17.1,15.1,92,30.52,6.0,Calm,Calm,-,N/A,,Overcast,0,2013-01-24 14:53:00
8:53 AM,19.0,16.0,88,30.52,6.0,Calm,Calm,-,N/A,,Mostly Cloudy,0,2013-01-24 15:53:00
9:53 AM,21.9,19.0,89,30.52,6.0,Calm,Calm,-,N/A,,Overcast,0,2013-01-24 16:53:00
10:53 AM,23.0,19.0,85,30.52,5.0,ENE,3.5,-,N/A,,Mostly Cloudy,70,2013-01-24 17:53:00
11:53 AM,26.1,19.0,75,30.49,7.0,Calm,Calm,-,N/A,,Overcast,0,2013-01-24 18:53:00
12:53 PM,26.1,21.0,81,30.44,5.0,Calm,Calm,-,N/A,,Haze,0,2013-01-24 19:53:00
1:53 PM,28.0,21.0,75,30.42,6.0,Calm,Calm,-,N/A,,Haze,0,2013-01-24 20:53:00
2:53 PM,28.0,19.9,72,30.42,9.0,Calm,Calm,-,N/A,,Overcast,0,2013-01-24 21:53:00
3:53 PM,30.0,21.9,72,30.41,8.0,Calm,Calm,-,N/A,,Overcast,0,2013-01-24 22:53:00
4:53 PM,28.0,21.9,78,30.45,6.0,Calm,Calm,-,N/A,,Haze,0,2013-01-24 23:53:00
5:53 PM,28.0,24.1,85,30.43,7.0,Calm,Calm,-,N/A,,Overcast,0,2013-01-25 00:53:00
6:53 PM,28.0,26.1,92,30.45,6.0,NW,4.6,-,N/A,,Overcast,320,2013-01-25 01:53:00
7:53 PM,28.0,25.0,88,30.46,6.0,NW,3.5,-,N/A,,Overcast,310,2013-01-25 02:53:00
8:53 PM,28.0,24.1,85,30.45,6.0,Calm,Calm,-,N/A,,Overcast,0,2013-01-25 03:53:00
9:53 PM,28.0,24.1,85,30.42,5.0,Calm,Calm,-,N/A,,Overcast,0,2013-01-25 04:53:00
10:53 PM,27.0,25.0,92,30.46,4.0,Calm,Calm,-,N/A,,Overcast,0,2013-01-25 05:53:00
11:53 PM,28.0,24.1,85,30.45,4.0,Calm,Calm,-,0.00,,Overcast,0,2013-01-25 06:53:00